Tracking 23114 objects as of 16-May-2021
HD Live streaming from Space Station
objects crossing your sky now

STARLINK-2484

Track STARLINK-2484 now!
10-day predictions
STARLINK-2484 is classified as:


NORAD ID: 48141
Int'l Code: 2021-027BB
Perigee: 406.1 km
Apogee: 407.5 km
Inclination: 53.0 °
Period: 92.6 minutes
Semi major axis: 6777 km
RCS: Unknown
Launch date: April 7, 2021
Source: United States (US)
Launch site: AIR FORCE EASTERN TEST RANGE (AFETR)
aabbcc
Your satellite tracking list
Your tracking list is empty




NASA's NSSDC Master Catalog

Two Line Element Set (TLE):
1 48141U 21027BB  21136.58334491 -.01075923  00000-0 -16819-1 0  9995
2 48141  53.0446 147.4829 0001025 165.7988 163.6355 15.55858549  1824
Source of the keplerian elements: AFSPC